QPF
0.00 0.00 0.00 0.00 0.00 0.00 0.00 0.00 0.00 0.00 0.00 0.00 0.01 0.01 0.01 0.02 0.02 0.00 0.00 0.00 0.02 0.00 0.00 0.01 0.01 0.02 0.01 0.00 0.00 0.00 0.00 0.00 0.00 0.00 0.01 0.01 0.00 0.00 0.00 0.00 0.00 0.00 0.00 0.00 0.00 0.00 0.00 0.00 0.00 0.00 0.00 0.00 0.00 0.03
0.00 0.00 0.00 0.00 0.00 0.00 0.00 0.00 0.00 0.00 0.00 0.00 0.01 0.01 0.01 0.02 0.03 0.00 0.00 0.01 0.03 0.03 0.01 0.00 0.00 0.00 0.01 0.01 0.01 0.01 0.00 0.00 0.00 0.00 0.00 0.00 0.00 0.00 0.00 0.00 0.00 0.00 0.00 0.00 0.00 0.00 0.00 0.00 0.00 0.00 0.00 0.00 0.00 0.00
0.00 0.00 0.00 0.00 0.00 0.00 0.00 0.00 0.00 0.00 0.00 0.00 0.00 0.00 0.00 0.01 0.01 0.00 0.00 0.01 0.04 0.04 0.01 0.00 0.00 0.00 0.00 0.00 0.00 0.01 0.00 0.00 0.00 0.00 0.00 0.00 0.00 0.00 0.00 0.00 0.00 0.00 0.00 0.00 0.00 0.00 0.00 0.00 0.00 0.00 0.00 0.01 0.02 0.08
0.00 0.00 0.00 0.00 0.00 0.00 0.00 0.00 0.00 0.00 0.00 0.00 0.00 0.00 0.00 0.00 0.00 0.01 0.00 0.01 0.03 0.02 0.00 0.00 0.00 0.00 0.00 0.00 0.00 0.00 0.00 0.00 0.00 0.01 0.01 0.00 0.00 0.00 0.00 0.00 0.00 0.00 0.00 0.00 0.00 0.00 0.00 0.00 0.00 0.00 0.00 0.02 0.05 0.09
0.00 0.00 0.00 0.00 0.00 0.00 0.00 0.00 0.00 0.00 0.00 0.00 0.00 0.00 0.00 0.00 0.00 0.00 0.00 0.00 0.02 0.02 0.01 0.00 0.00 0.00 0.00 0.00 0.00 0.00 0.00 0.00 0.00 0.00 0.00 0.00 0.00 0.00 0.00 0.00 0.00 0.00 0.00 0.00 0.00 0.00 0.00 0.00 0.00 0.00 0.01 0.04 0.04 0.05
0.00 0.00 0.00 0.00 0.00 0.00 0.00 0.00 0.00 0.00 0.00 0.00 0.00 0.00 0.00 0.00 0.00 0.00 0.01 0.00 0.00 0.01 0.02 0.01 0.00 0.00 0.00 0.00 0.00 0.00 0.00 0.00 0.00 0.00 0.00 0.00 0.00 0.00 0.00 0.00 0.00 0.00 0.00 0.00 0.00 0.00 0.00 0.02 0.02 0.00 0.02 0.01 0.00 0.00
0.00 0.00 0.00 0.00 0.00 0.00 0.00 0.00 0.00 0.00 0.00 0.00 0.00 0.00 0.00 0.00 0.00 0.00 0.00 0.00 0.00 0.02 0.03 0.00 0.00 0.00 0.00 0.00 0.00 0.00 0.01 0.01 0.00 0.00 0.00 0.00 0.00 0.00 0.00 0.00 0.00 0.00 0.00 0.00 0.00 0.00 0.00 0.02 0.03 0.00 0.00 0.00 0.00 0.00
0.00 0.00 0.00 0.00 0.00 0.00 0.00 0.00 0.00 0.00 0.00 0.00 0.00 0.00 0.00 0.00 0.00 0.00 0.00 0.00 0.00 0.01 0.00 0.00 0.00 0.00 0.01 0.01 0.01 0.01 0.02 0.03 0.01 0.00 0.00 0.00 0.00 0.00 0.00 0.00 0.00 0.00 0.00 0.00 0.00 0.00 0.00 0.00 0.01 0.00 0.00 0.00 0.00 0.00
0.00 0.00 0.00 0.00 0.00 0.00 0.00 0.00 0.00 0.00 0.00 0.00 0.00 0.00 0.00 0.00 0.00 0.00 0.00 0.00 0.00 0.00 0.00 0.01 0.01 0.00 0.01 0.01 0.02 0.01 0.02 0.02 0.00 0.00 0.00 0.00 0.00 0.00 0.00 0.00 0.00 0.00 0.00 0.00 0.00 0.00 0.01 0.02 0.01 0.00 0.00 0.00 0.00 0.00
0.00 0.00 0.00 0.00 0.00 0.00 0.00 0.00 0.00 0.00 0.00 0.00 0.00 0.00 0.00 0.00 0.00 0.00 0.00 0.00 0.00 0.00 0.00 0.01 0.01 0.00 0.01 0.00 0.01 0.01 0.01 0.00 0.00 0.01 0.00 0.00 0.00 0.00 0.00 0.00 0.00 0.00 0.00 0.00 0.00 0.00 0.01 0.00 0.00 0.00 0.00 0.00 0.00 0.00
0.00 0.00 0.00 0.00 0.00 0.00 0.00 0.00 0.00 0.00 0.00 0.00 0.00 0.00 0.00 0.00 0.00 0.00 0.00 0.00 0.00 0.00 0.01 0.01 0.01 0.01 0.01 0.02 0.02 0.01 0.01 0.01 0.00 0.01 0.00 0.00 0.00 0.00 0.00 0.00 0.00 0.00 0.00 0.00 0.00 0.00 0.01 0.00 0.00 0.00 0.00 0.00 0.00 0.00
0.00 0.00 0.00 0.00 0.00 0.00 0.00 0.00 0.00 0.00 0.00 0.00 0.00 0.00 0.00 0.00 0.00 0.00 0.00 0.00 0.00 0.00 0.01 0.02 0.03 0.01 0.01 0.01 0.01 0.01 0.01 0.00 0.00 0.00 0.00 0.00 0.00 0.00 0.00 0.00 0.00 0.00 0.00 0.00 0.00 0.00 0.00 0.00 0.00 0.00 0.00 0.00 0.00 0.00
0.00 0.00 0.00 0.00 0.00 0.00 0.00 0.00 0.00 0.00 0.00 0.00 0.00 0.00 0.00 0.00 0.00 0.00 0.00 0.01 0.02 0.03 0.02 0.01 0.01 0.00 0.01 0.00 0.00 0.00 0.00 0.00 0.00 0.00 0.00 0.00 0.00 0.00 0.00 0.00 0.00 0.00 0.00 0.01 0.00 0.00 0.00 0.00 0.00 0.00 0.00 0.00 0.00 0.00
0.00 0.00 0.00 0.00 0.00 0.00 0.00 0.00 0.00 0.00 0.00 0.00 0.00 0.00 0.00 0.00 0.00 0.01 0.03 0.02 0.01 0.00 0.00 0.00 0.01 0.00 0.00 0.00 0.00 0.00 0.00 0.00 0.00 0.00 0.00 0.00 0.00 0.00 0.00 0.00 0.00 0.00 0.00 0.00 0.00 0.00 0.00 0.00 0.00 0.00 0.00 0.00 0.00 0.00
0.00 0.00 0.00 0.00 0.00 0.00 0.00 0.00 0.00 0.00 0.00 0.00 0.00 0.00 0.00 0.00 0.00 0.00 0.01 0.00 0.00 0.00 0.00 0.00 0.00 0.00 0.00 0.00 0.00 0.00 0.00 0.00 0.00 0.00 0.00 0.00 0.00 0.00 0.00 0.00 0.00 0.00 0.00 0.00 0.00 0.00 0.00 0.00 0.00 0.00 0.00 0.00 0.00 0.00
0.00 0.00 0.00 0.00 0.00 0.00 0.00 0.00 0.00 0.00 0.00 0.00 0.00 0.00 0.00 0.00 0.00 0.00 0.00 0.00 0.00 0.00 0.00 0.00 0.00 0.00 0.00 0.00 0.00 0.00 0.00 0.00 0.00 0.00 0.00 0.00 0.00 0.00 0.00 0.00 0.00 0.00 0.00 0.00 0.00 0.00 0.00 0.00 0.00 0.00 0.00 0.00 0.00 0.00
0.00 0.00 0.00 0.00 0.00 0.00 0.00 0.00 0.00 0.00 0.00 0.00 0.00 0.00 0.00 0.00 0.00 0.00 0.00 0.00 0.00 0.00 0.00 0.00 0.00 0.00 0.00 0.00 0.00 0.00 0.00 0.00 0.00 0.00 0.00 0.00 0.00 0.00 0.00 0.00 0.00 0.00 0.00 0.00 0.00 0.00 0.00 0.00 0.00 0.00 0.00 0.00 0.00 0.00
0.00 0.00 0.00 0.00 0.00 0.00 0.00 0.00 0.00 0.00 0.00 0.00 0.00 0.00 0.00 0.00 0.00 0.00 0.00 0.00 0.00 0.00 0.00 0.00 0.00 0.00 0.00 0.00 0.00 0.00 0.00 0.00 0.00 0.00 0.00 0.00 0.00 0.00 0.00 0.00 0.00 0.00 0.00 0.00 0.00 0.00 0.00 0.00 0.00 0.00 0.00 0.00 0.00 0.00
0.00 0.00 0.00 0.00 0.00 0.00 0.00 0.00 0.00 0.00 0.00 0.00 0.00 0.00 0.00 0.00 0.00 0.00 0.00 0.00 0.00 0.00 0.00 0.00 0.00 0.00 0.00 0.00 0.00 0.00 0.00 0.00 0.00 0.00 0.00 0.00 0.00 0.00 0.00 0.00 0.00 0.00 0.00 0.00 0.00 0.00 0.00 0.00 0.00 0.00 0.00 0.00 0.00 0.00
0.00 0.00 0.00 0.00 0.00 0.00 0.00 0.00 0.00 0.00 0.00 0.00 0.00 0.00 0.00 0.00 0.00 0.00 0.00 0.00 0.00 0.00 0.00 0.00 0.00 0.00 0.00 0.00 0.00 0.00 0.00 0.00 0.00 0.00 0.00 0.00 0.00 0.00 0.00 0.00 0.00 0.00 0.00 0.00 0.00 0.00 0.00 0.00 0.00 0.00 0.00 0.00 0.00 0.00
0.00 0.00 0.00 0.00 0.00 0.00 0.00 0.00 0.00 0.00 0.00 0.00 0.00 0.00 0.00 0.00 0.00 0.00 0.00 0.00 0.00 0.00 0.00 0.00 0.00 0.00 0.00 0.00 0.00 0.00 0.00 0.00 0.00 0.00 0.00 0.00 0.00 0.00 0.00 0.00 0.00 0.00 0.00 0.00 0.00 0.00 0.00 0.00 0.00 0.00 0.00 0.00 0.00 0.00
0.00 0.00 0.00 0.00 0.00 0.00 0.00 0.00 0.00 0.00 0.00 0.00 0.00 0.00 0.00 0.00 0.00 0.00 0.00 0.00 0.00 0.00 0.00 0.00 0.00 0.00 0.00 0.00 0.00 0.00 0.00 0.00 0.00 0.00 0.00 0.00 0.00 0.00 0.00 0.00 0.00 0.00 0.00 0.00 0.00 0.00 0.00 0.00 0.00 0.00 0.00 0.00 0.00 0.00
0.00 0.00 0.00 0.00 0.00 0.00 0.00 0.00 0.00 0.00 0.00 0.00 0.00 0.00 0.00 0.00 0.00 0.00 0.00 0.00 0.00 0.00 0.00 0.00 0.00 0.00 0.00 0.00 0.00 0.00 0.00 0.00 0.00 0.00 0.00 0.00 0.00 0.00 0.00 0.00 0.00 0.00 0.00 0.00 0.00 0.00 0.00 0.00 0.00 0.00 0.00 0.00 0.00 0.00
0.00 0.00 0.00 0.00 0.00 0.00 0.00 0.00 0.00 0.00 0.00 0.00 0.00 0.00 0.00 0.00 0.00 0.00 0.00 0.00 0.00 0.00 0.00 0.00 0.00 0.00 0.00 0.00 0.00 0.00 0.00 0.00 0.00 0.00 0.00 0.00 0.00 0.00 0.00 0.00 0.00 0.00 0.00 0.00 0.00 0.00 0.00 0.00 0.00 0.00 0.00 0.00 0.00 0.00
0.00 0.00 0.00 0.00 0.00 0.00 0.00 0.00 0.00 0.00 0.00 0.00 0.00 0.00 0.00 0.00 0.00 0.00 0.00 0.00 0.00 0.00 0.00 0.00 0.00 0.00 0.00 0.00 0.00 0.00 0.00 0.00 0.00 0.00 0.00 0.00 0.00 0.00 0.00 0.00 0.00 0.00 0.00 0.00 0.00 0.00 0.00 0.00 0.00 0.00 0.00 0.01 0.01 0.00
0.00 0.00 0.00 0.00 0.00 0.00 0.00 0.00 0.00 0.00 0.00 0.00 0.00 0.00 0.00 0.00 0.00 0.00 0.00 0.00 0.00 0.00 0.00 0.00 0.00 0.00 0.00 0.00 0.00 0.00 0.00 0.00 0.00 0.00 0.00 0.00 0.00 0.00 0.00 0.00 0.00 0.00 0.00 0.00 0.00 0.00 0.00 0.00 0.00 0.00 0.01 0.00 0.02 0.01
0.00 0.00 0.00 0.00 0.00 0.00 0.00 0.00 0.00 0.00 0.00 0.00 0.00 0.00 0.00 0.00 0.00 0.00 0.00 0.00 0.00 0.00 0.00 0.00 0.00 0.00 0.00 0.00 0.00 0.00 0.00 0.00 0.00 0.00 0.00 0.00 0.00 0.00 0.00 0.00 0.00 0.00 0.00 0.00 0.00 0.00 0.00 0.00 0.00 0.00 0.00 0.00 0.01 0.00
0.00 0.00 0.00 0.00 0.00 0.00 0.00 0.00 0.00 0.00 0.00 0.00 0.00 0.00 0.00 0.00 0.00 0.00 0.00 0.00 0.00 0.00 0.00 0.00 0.00 0.00 0.00 0.00 0.00 0.00 0.00 0.00 0.00 0.00 0.00 0.00 0.00 0.00 0.00 0.00 0.00 0.00 0.00 0.01 0.01 0.00 0.00 0.00 0.00 0.00 0.00 0.00 0.01 0.01
0.00 0.00 0.00 0.00 0.00 0.00 0.00 0.00 0.00 0.00 0.00 0.00 0.00 0.00 0.00 0.00 0.00 0.00 0.00 0.00 0.00 0.00 0.00 0.00 0.00 0.00 0.00 0.00 0.00 0.00 0.00 0.00 0.00 0.00 0.00 0.00 0.00 0.00 0.00 0.00 0.00 0.00 0.00 0.01 0.01 0.00 0.00 0.00 0.00 0.00 0.00 0.00 0.00 0.00
0.00 0.00 0.00 0.00 0.00 0.00 0.00 0.00 0.00 0.00 0.00 0.00 0.00 0.00 0.00 0.00 0.00 0.00 0.00 0.00 0.00 0.00 0.00 0.00 0.00 0.00 0.00 0.00 0.00 0.00 0.00 0.00 0.00 0.00 0.00 0.00 0.00 0.00 0.00 0.00 0.00 0.00 0.00 0.00 0.00 0.00 0.00 0.00 0.00 0.00 0.00 0.00 0.00 0.00
0.00 0.00 0.00 0.00 0.00 0.00 0.00 0.00 0.00 0.00 0.00 0.00 0.00 0.00 0.00 0.00 0.00 0.00 0.00 0.00 0.00 0.00 0.00 0.00 0.00 0.00 0.00 0.00 0.00 0.00 0.00 0.00 0.00 0.00 0.00 0.00 0.00 0.00 0.00 0.00 0.00 0.00 0.00 0.00 0.00 0.00 0.00 0.00 0.00 0.00 0.00 0.00 0.00 0.00
0.00 0.00 0.00 0.00 0.00 0.00 0.00 0.00 0.00 0.00 0.00 0.00 0.00 0.00 0.00 0.00 0.00 0.00 0.00 0.00 0.00 0.00 0.00 0.00 0.00 0.00 0.00 0.00 0.00 0.00 0.00 0.00 0.00 0.00 0.00 0.00 0.00 0.00 0.00 0.00 0.00 0.00 0.00 0.00 0.00 0.00 0.00 0.00 0.00 0.00 0.00 0.00 0.00 0.00
0.00 0.00 0.00 0.00 0.00 0.00 0.00 0.00 0.00 0.00 0.00 0.00 0.00 0.00 0.00 0.00 0.00 0.00 0.00 0.00 0.00 0.00 0.00 0.00 0.00 0.00 0.00 0.00 0.00 0.00 0.00 0.00 0.00 0.00 0.00 0.00 0.00 0.00 0.00 0.00 0.00 0.00 0.00 0.00 0.00 0.00 0.00 0.00 0.00 0.00 0.00 0.00 0.00 0.00
MSLP
1021.05 1020.61 1020.09 1019.54 1019.01 1018.53 1018.07 1017.53 1016.95 1016.29 1015.53 1014.73 1014.00 1013.51 1013.36 1013.47 1013.93 1014.84 1014.55 1014.72 1014.59 1013.96 1013.21 1012.83 1012.50 1012.15 1012.09 1012.10 1011.81 1011.53 1011.37 1011.04 1010.76 1010.14 1009.41 1008.56 1007.55 1006.56 1006.02 1005.43 1005.45 1005.54 1005.58 1005.63 1005.93 1005.76 1005.61 1005.96 1006.46 1006.48 1006.28 1006.07 1006.08 1006.81
1020.80 1020.36 1019.79 1019.31 1018.87 1018.42 1017.89 1017.34 1016.81 1016.17 1015.33 1014.41 1013.53 1012.76 1012.52 1012.74 1013.13 1013.87 1014.26 1014.01 1014.32 1014.45 1013.47 1013.25 1012.56 1012.08 1011.88 1011.96 1012.44 1011.81 1011.62 1011.35 1010.90 1010.77 1010.15 1009.28 1008.38 1007.28 1006.15 1005.37 1005.44 1005.22 1005.03 1005.35 1005.65 1005.64 1006.35 1006.71 1006.99 1007.04 1006.94 1006.46 1006.53 1007.06
1020.50 1020.01 1019.53 1019.13 1018.74 1018.19 1017.65 1017.16 1016.58 1015.94 1015.17 1014.34 1013.51 1012.78 1012.39 1012.40 1012.64 1013.20 1013.58 1013.63 1014.11 1013.88 1013.26 1012.91 1011.64 1010.98 1011.67 1011.66 1011.84 1011.86 1011.80 1011.56 1011.48 1011.55 1011.08 1010.15 1008.78 1007.80 1006.52 1005.77 1005.37 1005.16 1005.28 1005.47 1006.39 1006.68 1006.69 1006.83 1007.25 1007.38 1007.09 1006.97 1007.59 1008.16
1020.18 1019.72 1019.30 1018.88 1018.43 1017.90 1017.42 1016.89 1016.33 1015.78 1015.15 1014.42 1013.73 1013.00 1012.47 1012.25 1012.38 1012.75 1013.21 1013.37 1013.44 1013.35 1012.86 1011.46 1011.06 1011.01 1010.80 1011.04 1011.22 1011.37 1011.54 1011.90 1011.88 1011.89 1011.36 1010.39 1009.18 1008.35 1007.09 1006.38 1005.70 1005.41 1005.38 1005.20 1005.62 1006.29 1006.31 1006.40 1006.66 1007.29 1007.83 1008.29 1008.74 1008.95
1019.89 1019.44 1018.97 1018.47 1018.06 1017.62 1017.14 1016.61 1016.09 1015.55 1014.96 1014.36 1013.81 1013.27 1012.59 1012.26 1012.23 1012.55 1012.95 1013.13 1013.34 1013.68 1012.66 1011.68 1011.15 1010.34 1010.39 1010.63 1010.76 1011.17 1011.40 1011.69 1011.86 1011.88 1011.46 1010.48 1009.45 1008.88 1007.89 1007.12 1005.91 1005.59 1005.28 1005.23 1004.77 1005.44 1005.45 1006.02 1006.96 1007.27 1008.96 1009.44 1008.99 1009.32
1019.55 1019.02 1018.55 1018.09 1017.69 1017.28 1016.83 1016.29 1015.76 1015.22 1014.70 1014.15 1013.65 1013.37 1012.98 1012.56 1012.48 1012.70 1013.00 1013.06 1013.06 1013.55 1013.11 1012.00 1011.22 1010.35 1010.26 1010.52 1010.73 1011.03 1011.18 1011.58 1011.79 1011.39 1010.91 1009.88 1009.27 1009.12 1007.92 1006.87 1006.08 1005.62 1005.57 1005.29 1005.02 1005.02 1005.07 1005.39 1006.54 1007.50 1008.83 1009.49 1009.64 1009.75
1019.13 1018.60 1018.13 1017.66 1017.27 1016.92 1016.49 1015.95 1015.38 1014.86 1014.32 1013.79 1013.39 1013.24 1013.16 1012.97 1012.86 1012.97 1013.07 1012.95 1012.81 1013.21 1013.29 1012.37 1011.10 1010.11 1010.08 1010.34 1010.64 1010.83 1011.12 1011.10 1011.27 1011.05 1010.68 1010.00 1009.41 1009.05 1008.13 1006.87 1006.13 1005.93 1005.64 1005.44 1005.49 1005.24 1006.07 1006.47 1007.18 1008.32 1009.29 1010.05 1010.05 1010.13
1018.62 1018.14 1017.67 1017.22 1016.81 1016.48 1016.03 1015.53 1015.01 1014.45 1013.85 1013.41 1013.05 1012.91 1012.89 1012.82 1012.91 1012.89 1012.75 1012.74 1012.87 1012.85 1012.83 1012.34 1010.98 1010.16 1009.95 1009.85 1010.04 1010.24 1010.37 1010.74 1010.51 1010.43 1010.50 1010.25 1009.98 1009.31 1008.01 1006.73 1006.16 1005.83 1005.67 1005.28 1005.39 1005.44 1005.51 1006.51 1007.47 1008.60 1009.78 1010.10 1010.11 1010.90
1018.15 1017.66 1017.17 1016.73 1016.37 1016.04 1015.61 1015.15 1014.65 1014.07 1013.42 1012.94 1012.73 1012.66 1012.77 1012.79 1012.75 1012.76 1012.51 1012.64 1012.69 1013.12 1012.54 1012.00 1010.84 1009.96 1009.89 1009.59 1009.66 1009.76 1009.82 1009.84 1010.02 1009.80 1009.86 1009.89 1009.44 1008.78 1007.63 1006.48 1005.65 1005.60 1005.33 1005.23 1005.60 1005.75 1006.23 1006.68 1007.79 1008.90 1009.68 1009.90 1010.31 1011.09
1017.66 1017.18 1016.67 1016.25 1015.93 1015.65 1015.27 1014.85 1014.35 1013.68 1012.98 1012.52 1012.45 1012.53 1012.57 1013.01 1012.75 1012.78 1012.72 1012.65 1012.52 1012.26 1012.08 1011.34 1010.42 1009.93 1010.10 1009.62 1009.54 1009.66 1009.62 1009.63 1009.35 1009.56 1009.69 1009.39 1008.57 1007.89 1007.13 1006.50 1005.66 1005.35 1005.29 1005.61 1005.84 1006.48 1006.44 1006.92 1007.74 1008.70 1009.21 1009.73 1010.37 1011.06
1017.06 1016.58 1016.13 1015.79 1015.52 1015.26 1014.93 1014.54 1014.14 1013.51 1012.77 1012.80 1013.04 1013.10 1013.17 1012.89 1012.74 1012.53 1012.04 1011.94 1011.69 1011.58 1011.21 1010.45 1010.04 1009.63 1009.71 1009.56 1009.28 1009.38 1009.25 1009.22 1009.23 1009.31 1009.21 1008.99 1008.01 1007.28 1007.43 1006.43 1005.65 1005.39 1005.68 1005.68 1005.24 1005.66 1006.60 1006.80 1007.88 1008.90 1009.69 1010.43 1010.97 1011.52
1016.44 1015.99 1015.62 1015.38 1015.14 1014.84 1014.55 1014.27 1014.07 1013.89 1013.75 1013.92 1014.04 1013.71 1013.39 1012.89 1012.44 1012.19 1011.37 1011.07 1011.04 1011.19 1010.64 1010.04 1009.52 1009.35 1009.04 1009.12 1008.86 1008.91 1008.49 1008.66 1008.29 1008.81 1008.95 1008.22 1007.85 1007.89 1007.23 1006.89 1006.38 1006.02 1006.10 1006.33 1005.58 1007.06 1007.24 1007.99 1008.54 1009.32 1010.26 1010.98 1011.38 1011.77
1015.98 1015.51 1015.23 1015.00 1014.72 1014.39 1014.09 1013.86 1013.79 1013.74 1013.64 1013.65 1013.59 1013.12 1012.73 1012.24 1011.80 1011.38 1011.07 1010.74 1010.60 1010.60 1010.23 1010.04 1009.59 1009.34 1008.82 1008.87 1008.64 1008.45 1008.24 1008.17 1008.18 1008.33 1008.29 1008.38 1008.37 1008.16 1007.76 1007.13 1006.65 1006.66 1006.58 1006.90 1006.83 1007.43 1008.04 1008.66 1009.27 1009.85 1010.54 1011.24 1011.65 1012.14
1015.45 1015.13 1014.89 1014.61 1014.36 1014.04 1013.74 1013.58 1013.45 1013.41 1013.54 1013.24 1012.75 1012.48 1012.10 1011.59 1011.46 1011.24 1011.11 1010.80 1010.62 1010.53 1010.26 1010.04 1009.45 1009.13 1008.92 1008.71 1008.52 1008.14 1008.18 1008.22 1008.34 1008.66 1008.80 1009.04 1009.07 1008.27 1007.66 1007.42 1007.08 1006.90 1007.11 1007.27 1007.56 1007.93 1008.51 1009.18 1009.85 1010.36 1010.84 1011.29 1011.73 1012.26
1015.12 1014.75 1014.46 1014.22 1014.04 1013.74 1013.43 1013.17 1013.06 1013.14 1013.05 1012.73 1012.43 1012.01 1011.65 1011.65 1011.42 1011.15 1011.06 1010.73 1010.44 1010.51 1010.21 1009.81 1009.59 1009.50 1009.04 1008.80 1008.66 1008.36 1008.12 1008.69 1009.25 1009.76 1009.96 1009.73 1009.39 1009.03 1008.52 1008.11 1007.75 1007.57 1007.70 1008.03 1008.36 1008.71 1009.27 1009.79 1010.34 1010.97 1011.39 1011.69 1012.06 1012.49
1014.76 1014.26 1013.99 1014.00 1013.69 1013.26 1012.85 1012.66 1012.75 1012.77 1012.53 1012.23 1011.91 1011.66 1011.53 1011.36 1011.12 1011.01 1010.79 1010.51 1010.54 1010.33 1010.04 1010.11 1009.75 1009.52 1009.54 1009.62 1009.09 1009.32 1009.37 1009.94 1010.45 1010.68 1010.54 1010.07 1009.63 1009.48 1009.14 1008.73 1008.38 1008.22 1008.25 1008.55 1008.99 1009.51 1010.11 1010.32 1010.88 1011.43 1011.89 1012.21 1012.46 1012.69
1014.50 1014.11 1013.82 1013.68 1013.30 1012.79 1012.54 1012.49 1012.40 1012.24 1011.77 1011.63 1011.38 1011.43 1011.34 1011.32 1011.29 1011.20 1011.08 1010.75 1010.85 1010.36 1010.06 1010.19 1010.08 1010.25 1010.16 1009.85 1010.06 1010.49 1010.72 1011.04 1011.22 1011.09 1010.82 1010.52 1010.19 1009.98 1009.72 1009.46 1009.28 1009.27 1009.33 1009.57 1010.07 1010.02 1010.81 1011.06 1011.62 1012.00 1012.32 1012.84 1013.04 1013.26
1014.18 1013.73 1013.70 1013.53 1013.24 1012.80 1012.41 1012.25 1011.97 1011.69 1011.26 1011.17 1011.10 1010.86 1011.05 1011.03 1011.07 1011.17 1011.14 1011.14 1010.96 1010.64 1010.60 1010.76 1010.86 1010.80 1010.94 1010.81 1010.89 1011.25 1011.42 1011.44 1011.47 1011.41 1011.17 1011.07 1010.89 1010.75 1010.62 1010.45 1010.39 1010.36 1010.47 1010.63 1010.78 1011.05 1011.36 1011.71 1012.09 1012.38 1012.71 1013.23 1013.35 1013.53
1014.00 1013.73 1013.44 1013.30 1013.45 1013.24 1012.50 1012.01 1011.91 1011.28 1010.88 1010.84 1010.76 1010.89 1010.84 1010.78 1010.90 1011.05 1011.09 1011.19 1011.25 1011.19 1011.01 1011.12 1011.10 1011.26 1011.42 1011.66 1011.64 1011.67 1011.72 1011.76 1011.74 1011.83 1011.66 1011.55 1011.59 1011.57 1011.58 1011.63 1011.71 1011.61 1011.61 1011.78 1011.95 1012.16 1012.24 1012.25 1012.41 1012.59 1012.96 1013.32 1013.32 1013.49
1013.59 1013.20 1012.95 1012.71 1012.97 1012.78 1012.34 1011.90 1011.84 1011.30 1010.69 1010.65 1010.66 1010.50 1010.51 1010.47 1010.56 1010.64 1010.77 1010.96 1011.01 1010.96 1010.86 1011.03 1011.35 1011.68 1011.87 1012.09 1012.11 1012.06 1012.08 1012.11 1012.06 1011.90 1011.90 1011.72 1011.95 1012.11 1012.21 1012.26 1012.46 1012.49 1012.35 1012.40 1012.66 1012.77 1012.89 1013.05 1013.28 1013.50 1013.84 1013.89 1013.86 1013.95
1013.24 1012.89 1012.80 1012.80 1012.73 1012.60 1012.28 1011.60 1011.20 1010.93 1010.69 1010.49 1010.41 1010.33 1010.12 1010.38 1010.22 1010.20 1010.31 1010.78 1010.84 1010.86 1010.92 1011.24 1011.48 1011.88 1012.28 1012.29 1012.16 1012.22 1012.11 1012.02 1011.98 1011.99 1012.02 1011.96 1012.23 1012.36 1012.55 1012.64 1012.72 1012.43 1012.43 1012.62 1012.88 1013.32 1013.50 1013.71 1014.02 1014.17 1014.40 1014.26 1014.30 1014.40
1013.15 1012.87 1012.66 1012.64 1012.40 1012.32 1012.10 1011.47 1011.21 1010.87 1010.75 1010.30 1010.29 1010.12 1009.89 1009.82 1009.76 1009.83 1010.29 1010.21 1010.41 1010.82 1011.24 1011.42 1011.62 1011.86 1011.97 1012.07 1012.17 1012.17 1012.13 1012.04 1012.03 1012.04 1012.03 1012.16 1012.40 1012.66 1012.88 1012.93 1012.77 1012.71 1012.83 1013.00 1013.22 1013.39 1013.71 1014.03 1014.32 1014.40 1014.39 1014.37 1014.31 1014.50
1013.15 1012.98 1012.62 1012.38 1012.23 1012.12 1011.50 1011.23 1010.95 1010.56 1010.23 1010.00 1010.00 1009.74 1009.53 1009.59 1009.77 1010.16 1009.93 1010.08 1010.43 1011.07 1011.32 1011.53 1011.75 1011.93 1011.92 1012.16 1012.20 1012.26 1012.33 1012.25 1012.24 1012.17 1012.16 1012.33 1012.69 1012.96 1013.01 1012.90 1012.76 1012.65 1012.62 1012.92 1013.05 1013.30 1013.71 1014.12 1014.29 1014.21 1014.37 1014.50 1014.59 1014.65
1012.99 1012.71 1012.28 1012.06 1011.93 1011.52 1011.02 1010.66 1010.59 1010.32 1010.10 1009.87 1009.65 1009.21 1009.17 1009.28 1009.68 1009.58 1009.40 1009.84 1010.39 1010.98 1011.21 1011.47 1011.60 1011.77 1011.99 1012.07 1011.93 1012.05 1012.22 1012.32 1012.42 1012.57 1012.63 1012.60 1012.64 1012.86 1012.83 1012.78 1012.81 1012.80 1012.81 1012.94 1013.08 1013.39 1013.62 1013.97 1014.39 1014.40 1014.40 1014.49 1014.59 1014.74
1013.01 1012.52 1012.34 1011.93 1011.54 1011.20 1010.61 1010.29 1010.12 1010.02 1009.69 1009.55 1009.28 1008.80 1008.76 1009.15 1008.96 1008.89 1008.85 1009.40 1010.05 1010.41 1010.80 1011.15 1011.33 1011.27 1011.25 1011.51 1011.77 1012.00 1012.36 1012.08 1012.02 1012.14 1012.54 1012.44 1012.53 1012.64 1012.41 1012.32 1012.46 1012.58 1012.70 1012.73 1012.97 1013.18 1013.57 1013.86 1014.06 1014.23 1014.36 1014.43 1014.59 1014.88
1012.38 1011.88 1011.83 1011.10 1010.81 1010.67 1010.21 1009.93 1009.80 1009.64 1009.48 1009.08 1008.71 1008.57 1008.66 1008.50 1008.31 1007.99 1008.09 1008.61 1009.30 1009.82 1010.16 1010.39 1010.54 1010.75 1010.91 1011.05 1011.16 1011.37 1011.65 1012.07 1012.15 1012.07 1012.12 1012.25 1012.18 1012.06 1011.93 1011.97 1011.95 1012.23 1012.63 1012.56 1012.68 1012.89 1013.27 1013.60 1013.71 1013.87 1013.97 1014.32 1014.65 1014.61
1011.86 1011.20 1011.00 1010.87 1010.57 1010.32 1009.96 1009.71 1009.66 1009.42 1008.95 1008.47 1008.13 1008.03 1007.98 1007.64 1007.30 1007.30 1007.79 1008.37 1008.62 1009.11 1009.50 1009.81 1009.96 1010.00 1010.08 1010.51 1010.87 1011.13 1011.34 1011.61 1011.61 1011.61 1011.68 1011.91 1011.94 1011.99 1011.96 1011.79 1011.80 1012.13 1012.44 1012.64 1012.75 1012.88 1013.03 1013.30 1013.52 1013.74 1013.90 1014.19 1014.30 1014.47
1011.15 1010.76 1010.44 1010.27 1010.04 1009.79 1009.27 1008.89 1008.63 1008.28 1007.94 1007.96 1007.93 1007.39 1007.15 1006.87 1006.80 1007.03 1007.37 1007.87 1008.11 1008.63 1009.16 1009.65 1009.89 1009.91 1010.00 1010.25 1010.44 1010.69 1010.98 1011.29 1011.54 1011.71 1011.65 1011.65 1011.73 1011.71 1011.84 1011.91 1012.12 1012.55 1012.47 1012.82 1012.99 1013.08 1013.17 1013.34 1013.44 1013.61 1013.83 1014.04 1014.26 1014.43
1010.61 1010.00 1009.96 1009.42 1009.17 1008.90 1008.41 1007.93 1007.39 1007.20 1007.18 1007.15 1006.91 1006.75 1006.70 1006.87 1007.06 1007.19 1007.62 1007.86 1008.25 1008.60 1008.94 1009.31 1009.62 1009.82 1009.91 1010.07 1010.24 1010.38 1010.53 1010.74 1010.80 1010.76 1010.66 1010.61 1010.88 1011.50 1011.75 1011.87 1012.05 1012.22 1012.46 1012.88 1013.16 1013.14 1013.28 1013.38 1013.63 1013.74 1013.92 1014.05 1014.41 1014.65
1009.58 1009.48 1009.09 1008.59 1008.11 1007.31 1006.69 1006.80 1006.52 1006.45 1006.70 1006.52 1006.50 1006.66 1006.72 1006.82 1007.17 1007.57 1007.63 1007.79 1007.95 1008.01 1008.10 1008.39 1008.77 1009.17 1009.18 1009.43 1009.52 1009.94 1010.24 1010.31 1010.25 1010.06 1010.08 1010.31 1010.65 1011.29 1011.61 1011.89 1012.10 1012.33 1012.57 1012.81 1013.12 1013.42 1013.78 1013.71 1014.01 1013.99 1014.19 1014.39 1014.49 1014.75
1009.06 1008.94 1008.51 1007.82 1007.00 1006.31 1006.08 1006.21 1006.36 1006.41 1006.35 1006.23 1006.29 1006.19 1006.20 1006.49 1006.84 1007.23 1007.35 1007.42 1007.50 1007.76 1007.97 1008.11 1008.30 1008.52 1008.72 1008.86 1008.97 1009.04 1009.21 1009.76 1010.00 1010.23 1010.33 1010.46 1010.81 1011.18 1011.49 1011.84 1012.13 1012.35 1012.57 1012.61 1012.69 1013.01 1013.46 1013.47 1013.60 1013.81 1013.95 1014.03 1014.28 1014.44
1008.34 1007.99 1007.65 1007.09 1006.40 1005.97 1006.00 1005.97 1005.79 1005.77 1005.69 1005.76 1005.71 1005.96 1006.19 1006.20 1006.18 1006.55 1006.77 1007.14 1007.35 1007.40 1007.37 1007.47 1007.59 1007.59 1007.96 1008.25 1008.48 1008.62 1008.99 1008.92 1009.43 1009.88 1010.33 1010.48 1010.92 1011.27 1011.54 1011.80 1012.04 1012.30 1012.55 1012.67 1012.77 1013.03 1013.24 1013.43 1013.59 1013.60 1013.75 1014.09 1014.15 1014.20
1007.54 1007.40 1007.17 1006.77 1006.18 1005.73 1005.53 1005.62 1005.47 1005.40 1005.44 1005.35 1005.41 1005.46 1005.46 1005.46 1005.45 1005.37 1006.13 1006.16 1006.21 1006.39 1006.67 1006.90 1007.06 1007.34 1007.66 1007.96 1008.09 1008.21 1008.71 1008.81 1009.18 1009.62 1010.03 1010.31 1010.69 1011.11 1011.43 1011.74 1011.99 1012.22 1012.44 1012.54 1012.75 1012.95 1013.21 1013.36 1013.47 1013.58 1013.67 1013.77 1013.82 1013.94
Thickness
5565 5565 5565 5565 5565 5564 5564 5563 5563 5564 5566 5568 5571 5571 5569 5564 5557 5549 5549 5545 5547 5553 5558 5563 5567 5568 5569 5571 5573 5584 5587 5589 5592 5594 5603 5615 5621 5640 5642 5658 5654 5656 5654 5657 5652 5659 5661 5691 5689 5682 5700 5707 5713 5710
5558 5557 5558 5557 5557 5556 5556 5556 5555 5555 5558 5562 5565 5568 5566 5560 5553 5547 5541 5539 5536 5534 5547 5547 5556 5562 5563 5564 5559 5568 5574 5576 5584 5583 5585 5596 5607 5618 5634 5631 5652 5642 5660 5657 5662 5668 5667 5673 5675 5680 5688 5695 5700 5700
5552 5552 5552 5550 5549 5549 5548 5548 5548 5549 5552 5554 5557 5559 5558 5554 5548 5543 5536 5534 5528 5530 5538 5542 5553 5558 5555 5557 5557 5555 5558 5566 5569 5572 5576 5582 5592 5608 5616 5628 5637 5644 5651 5651 5641 5646 5653 5662 5666 5671 5680 5684 5683 5685
5548 5547 5546 5544 5543 5541 5541 5541 5542 5544 5545 5546 5548 5549 5550 5547 5543 5539 5533 5529 5527 5526 5529 5546 5547 5546 5551 5551 5552 5554 5556 5553 5558 5558 5567 5578 5589 5597 5610 5619 5626 5637 5640 5645 5642 5640 5653 5661 5663 5663 5662 5665 5664 5668
5543 5542 5541 5539 5538 5536 5535 5536 5538 5539 5540 5540 5540 5541 5542 5541 5538 5533 5528 5524 5520 5516 5528 5535 5538 5546 5546 5545 5547 5546 5549 5548 5550 5550 5554 5565 5579 5583 5597 5605 5618 5629 5633 5632 5639 5644 5651 5651 5647 5655 5644 5643 5654 5656
5538 5538 5537 5535 5535 5533 5533 5533 5535 5537 5537 5537 5537 5534 5533 5532 5530 5527 5525 5520 5516 5510 5515 5527 5535 5541 5542 5540 5540 5540 5542 5542 5541 5547 5553 5570 5578 5576 5585 5592 5615 5623 5624 5631 5635 5643 5649 5652 5647 5643 5634 5637 5644 5648
5534 5534 5533 5533 5533 5531 5530 5531 5534 5535 5535 5536 5534 5530 5526 5524 5522 5521 5520 5516 5513 5510 5511 5519 5531 5540 5539 5537 5536 5535 5536 5539 5541 5544 5549 5563 5571 5573 5578 5587 5608 5607 5615 5620 5625 5632 5625 5632 5629 5626 5624 5625 5634 5640
5531 5531 5531 5531 5531 5529 5529 5531 5532 5534 5536 5535 5534 5531 5527 5523 5520 5519 5515 5512 5509 5510 5510 5514 5528 5535 5537 5538 5537 5536 5538 5537 5540 5545 5544 5549 5551 5560 5570 5592 5598 5603 5603 5611 5617 5626 5633 5628 5623 5618 5614 5618 5624 5624
5528 5528 5529 5529 5528 5527 5528 5529 5531 5533 5535 5536 5535 5532 5528 5526 5524 5520 5517 5514 5511 5509 5513 5515 5526 5531 5529 5534 5535 5535 5535 5539 5539 5545 5547 5550 5548 5556 5571 5584 5598 5600 5606 5609 5612 5618 5618 5618 5615 5610 5610 5616 5618 5616
5525 5526 5527 5526 5526 5525 5526 5527 5529 5532 5535 5536 5535 5535 5534 5523 5521 5519 5517 5517 5516 5516 5514 5518 5524 5526 5522 5528 5528 5532 5532 5534 5542 5543 5541 5547 5557 5567 5579 5587 5597 5601 5604 5606 5604 5603 5614 5613 5611 5610 5613 5615 5616 5614
5523 5524 5524 5524 5523 5523 5524 5525 5527 5530 5532 5532 5528 5529 5522 5521 5521 5521 5526 5524 5525 5526 5524 5530 5529 5531 5526 5528 5532 5531 5533 5536 5536 5540 5543 5546 5562 5574 5570 5583 5595 5601 5601 5606 5615 5616 5612 5614 5609 5605 5605 5605 5606 5607
5520 5521 5521 5520 5520 5521 5522 5523 5523 5523 5521 5520 5517 5516 5517 5522 5524 5526 5535 5534 5532 5528 5530 5534 5536 5537 5537 5533 5536 5536 5541 5540 5545 5542 5543 5556 5563 5564 5573 5578 5584 5591 5592 5595 5610 5601 5605 5600 5600 5599 5596 5595 5598 5601
5515 5515 5516 5517 5519 5520 5522 5522 5520 5519 5518 5517 5518 5523 5526 5529 5525 5535 5530 5534 5533 5531 5534 5531 5535 5536 5540 5539 5541 5543 5545 5545 5549 5549 5554 5554 5558 5563 5568 5575 5581 5582 5586 5586 5592 5591 5590 5591 5591 5592 5589 5589 5591 5592
5514 5513 5514 5516 5517 5518 5521 5521 5520 5519 5517 5521 5528 5514 5529 5531 5529 5526 5525 5526 5527 5527 5527 5529 5535 5536 5538 5541 5542 5548 5550 5547 5550 5548 5552 5551 5551 5561 5569 5573 5577 5580 5582 5582 5582 5583 5583 5582 5582 5582 5583 5584 5585 5585
5513 5514 5515 5515 5516 5519 5521 5522 5521 5519 5519 5522 5523 5520 5526 5521 5520 5521 5519 5522 5524 5521 5525 5529 5530 5532 5537 5540 5540 5546 5552 5543 5539 5537 5538 5539 5545 5553 5560 5566 5571 5574 5575 5574 5575 5575 5574 5574 5574 5572 5573 5576 5578 5578
5512 5515 5515 5515 5518 5522 5524 5524 5521 5519 5519 5521 5521 5523 5520 5519 5519 5518 5518 5518 5517 5518 5521 5520 5526 5531 5530 5524 5540 5533 5538 5531 5529 5524 5525 5531 5543 5546 5550 5556 5561 5565 5568 5569 5570 5568 5566 5567 5566 5563 5564 5566 5569 5571
5512 5515 5516 5518 5521 5524 5525 5523 5522 5524 5526 5525 5524 5518 5516 5513 5512 5509 5508 5512 5506 5515 5519 5518 5523 5521 5521 5530 5529 5519 5522 5519 5516 5519 5522 5528 5533 5537 5543 5548 5552 5554 5556 5557 5556 5560 5556 5556 5553 5553 5554 5553 5557 5559
5515 5518 5518 5519 5520 5522 5524 5524 5526 5527 5529 5526 5523 5523 5515 5512 5509 5506 5504 5501 5504 5508 5508 5509 5505 5508 5500 5519 5517 5511 5509 5511 5513 5515 5518 5522 5526 5529 5533 5536 5539 5542 5543 5544 5545 5545 5544 5545 5545 5546 5545 5544 5547 5549
5516 5517 5519 5520 5517 5517 5523 5527 5524 5529 5531 5526 5522 5517 5515 5513 5507 5502 5500 5496 5494 5495 5500 5499 5502 5502 5501 5498 5502 5503 5505 5506 5509 5506 5509 5514 5514 5516 5518 5520 5521 5524 5526 5526 5526 5529 5533 5535 5537 5538 5537 5537 5541 5541
5519 5522 5523 5523 5520 5522 5526 5528 5522 5526 5531 5528 5521 5521 5518 5516 5509 5505 5502 5498 5498 5500 5502 5501 5497 5494 5494 5487 5489 5492 5494 5494 5497 5502 5503 5507 5507 5508 5509 5510 5508 5511 5516 5517 5515 5515 5517 5518 5518 5520 5520 5521 5525 5527
5522 5523 5523 5521 5522 5521 5523 5528 5531 5529 5529 5529 5523 5521 5523 5512 5512 5511 5508 5498 5500 5500 5501 5496 5493 5488 5482 5484 5487 5484 5485 5488 5491 5495 5495 5498 5497 5499 5499 5501 5503 5507 5510 5510 5509 5503 5503 5504 5502 5502 5503 5508 5510 5512
5523 5523 5524 5522 5526 5524 5522 5528 5530 5529 5529 5529 5524 5523 5523 5522 5518 5516 5505 5509 5506 5500 5494 5491 5489 5486 5485 5483 5481 5480 5480 5480 5480 5481 5483 5485 5489 5490 5490 5490 5497 5498 5497 5497 5497 5498 5497 5496 5495 5496 5498 5500 5502 5503
5522 5522 5525 5525 5528 5519 5528 5529 5532 5533 5534 5534 5529 5529 5529 5524 5518 5508 5514 5509 5505 5494 5491 5489 5486 5484 5485 5481 5480 5478 5474 5472 5470 5471 5475 5477 5479 5479 5480 5484 5488 5491 5493 5491 5493 5492 5490 5485 5484 5490 5489 5490 5491 5492
5523 5527 5531 5532 5530 5525 5534 5537 5534 5535 5534 5534 5532 5535 5533 5528 5519 5520 5520 5513 5505 5496 5494 5490 5489 5486 5483 5481 5483 5481 5478 5475 5473 5471 5471 5475 5479 5479 5481 5482 5481 5482 5484 5484 5484 5482 5482 5480 5475 5478 5479 5479 5480 5480
5525 5529 5529 5513 5532 5534 5539 5540 5539 5537 5538 5536 5535 5539 5537 5528 5530 5526 5526 5518 5509 5505 5500 5495 5491 5492 5492 5488 5484 5481 5475 5479 5481 5480 5476 5477 5478 5476 5480 5481 5479 5478 5477 5477 5475 5474 5472 5470 5470 5469 5469 5470 5469 5469
5527 5537 5530 5542 5542 5540 5543 5541 5541 5541 5538 5539 5540 5540 5535 5535 5535 5536 5535 5527 5518 5512 5508 5504 5501 5497 5493 5492 5489 5487 5484 5478 5477 5478 5477 5476 5477 5479 5480 5479 5479 5477 5472 5472 5471 5468 5465 5463 5463 5463 5464 5462 5454 5462
5523 5541 5542 5540 5541 5542 5542 5542 5540 5539 5541 5543 5547 5543 5542 5541 5543 5546 5538 5530 5527 5521 5516 5512 5508 5506 5503 5498 5493 5490 5487 5483 5483 5482 5480 5477 5476 5475 5476 5477 5476 5473 5468 5464 5462 5460 5459 5457 5456 5455 5455 5454 5454 5455
5543 5544 5546 5547 5545 5546 5549 5550 5549 5549 5551 5549 5546 5548 5549 5550 5551 5551 5545 5538 5534 5528 5521 5515 5512 5509 5506 5502 5500 5496 5492 5487 5483 5480 5479 5477 5475 5474 5473 5472 5469 5460 5462 5456 5453 5451 5450 5449 5449 5449 5448 5447 5446 5446
5544 5550 5548 5552 5552 5551 5554 5558 5562 5562 5561 5557 5557 5557 5556 5553 5550 5548 5543 5538 5533 5528 5524 5520 5515 5511 5509 5505 5502 5499 5497 5492 5489 5488 5487 5485 5482 5477 5472 5471 5468 5465 5460 5451 5443 5444 5443 5442 5440 5440 5439 5439 5437 5436
5554 5553 5556 5559 5560 5566 5573 5569 5571 5570 5564 5564 5562 5557 5555 5553 5548 5542 5541 5539 5536 5533 5532 5528 5523 5517 5517 5513 5512 5505 5500 5499 5498 5498 5493 5489 5485 5478 5473 5469 5466 5463 5459 5453 5446 5440 5431 5435 5431 5434 5433 5430 5429 5428
5558 5557 5560 5566 5572 5578 5578 5574 5571 5569 5566 5566 5563 5563 5562 5557 5552 5547 5545 5543 5541 5537 5532 5530 5527 5524 5521 5519 5518 5517 5514 5507 5503 5499 5495 5492 5486 5481 5477 5472 5467 5463 5459 5457 5454 5450 5444 5441 5438 5435 5432 5430 5426 5423
5563 5565 5567 5569 5576 5579 5576 5574 5577 5575 5574 5571 5570 5565 5561 5560 5559 5555 5551 5546 5542 5540 5537 5536 5534 5534 5530 5527 5525 5523 5517 5518 5511 5505 5500 5497 5490 5485 5479 5474 5470 5466 5461 5458 5455 5451 5448 5444 5441 5439 5436 5429 5428 5428
5568 5568 5569 5571 5576 5578 5580 5577 5577 5577 5574 5574 5572 5572 5570 5569 5564 5568 5558 5557 5555 5551 5546 5544 5542 5540 5535 5531 5530 5528 5522 5522 5517 5511 5506 5503 5498 5492 5487 5482 5476 5472 5467 5463 5458 5454 5450 5447 5444 5442 5440 5438 5437 5435